Location: Slanting_Bridge
(35.6330°N, 80.9830°W)
Time: 11:59:42
(UTC-05:00)

Amateur Radio Satellites - All Passes

Search period start: 30 January 2015 11:29
Search period end: 31 January 2015 11:29
Location: Slanting_Bridge, 35.6330°N, 80.9830°W

Satellite Date Start Highest point End Downlink Frequencies (MHz)
Time Altitude Azimuth
DUCHIFAT 1 30 Jan 11:31:44 11:35:11 23° 265° (W) 11:38:33 145.980
SPROUT 30 Jan 11:32:39 11:34:36 13° 91° (E) 11:36:46 437.525
PHONESAT 2.4 30 Jan 11:37:15 11:40:39 36° 2° (N) 11:44:04 2401.200-2431.200
BEESAT 2 30 Jan 11:38:25 11:42:37 83° 239° (WSW) 11:46:42 435.950
50 SAT 30 Jan 11:38:32 11:42:19 39° 287° (WNW) 11:46:02 437.505
AIST 2 30 Jan 11:40:16 11:44:18 40° 56° (NE) 11:48:17 435.215
VELOX 1 30 Jan 11:45:24 11:49:33 36° 287° (WNW) 11:53:37 145.980
Oscar 19 30 Jan 11:47:24 11:49:34 13° 65° (ENE) 11:52:02 437.125/150
CUBEBUG 1 30 Jan 11:49:55 11:54:24 82° 283° (WNW) 11:58:50 437.445
BEESAT 3 30 Jan 11:51:29 11:55:31 49° 244° (WSW) 11:59:27 437.485
TISAT 1 30 Jan 12:04:19 12:08:06 30° 97° (E) 12:11:54 437.305
VERMONT LUNAR 30 Jan 12:09:54 12:13:19 50° 14° (NNE) 12:16:45 437.305
HUMSAT D 30 Jan 12:14:33 12:16:32 13° 293° (WNW) 12:18:18 437.325/437.525
GONETS M04 30 Jan 12:19:08 12:27:33 53° 78° (ENE) 12:36:01
RS-15 30 Jan 12:43:14 12:53:08 34° 43° (NE) 13:03:38 29.354- 29.394
SWISSCUBE 30 Jan 13:01:53 13:05:25 21° 94° (E) 13:09:05 437.505
ESTCUBE 1 30 Jan 13:02:35 13:04:48 13° 293° (WNW) 13:06:47 437.505/2401.250
SPROUT 30 Jan 13:06:50 13:11:00 45° 286° (WNW) 13:15:08 437.525
Gurwin Techsat 1B 30 Jan 13:08:36 13:12:11 19° 67° (ENE) 13:15:57 435.225
PHONESAT 2.4 30 Jan 13:15:53 13:19:31 72° 18° (NNE) 13:23:10 2401.200-2431.200
BEESAT 30 Jan 13:17:02 13:21:06 28° 96° (E) 13:25:13 436.000
AIST 2 30 Jan 13:19:57 13:22:38 16° 250° (WSW) 13:25:07 435.215
ITUPSAT 1 30 Jan 13:21:36 13:25:48 31° 97° (E) 13:30:04 437.325
Oscar 19 30 Jan 13:23:14 13:28:25 70° 258° (WSW) 13:33:37 437.125/150
PCSat 30 Jan 13:26:20 13:31:36 50° 59° (ENE) 13:36:52 145.827
TISAT 1 30 Jan 13:40:36 13:43:46 20° 290° (WNW) 13:46:48 437.305
ITAMSAT 1 30 Jan 13:42:09 13:47:13 61° 74° (ENE) 13:52:21 435.822/435.867
VERMONT LUNAR 30 Jan 13:48:05 13:51:25 41° 209° (SSW) 13:54:44 437.305
HORYU 2 30 Jan 14:04:38 14:07:37 18° 68° (ENE) 14:10:45 437.375
DANDE 30 Jan 14:12:17 14:14:41 13° 57° (ENE) 14:17:11 436.750
GONETS M04 30 Jan 14:16:49 14:24:01 29° 274° (W) 14:30:57
AO-7 30 Jan 14:23:51 14:30:32 29° 61° (ENE) 14:37:27 29.400- 29.500
CUSAT 1 30 Jan 14:33:14 14:37:36 22° 65° (ENE) 14:41:15 437.405
SWISSCUBE 30 Jan 14:39:03 14:43:24 34° 289° (WNW) 14:47:41 437.505
STARS 30 Jan 14:45:08 14:49:01 30° 96° (E) 14:52:56 437.465
Gurwin Techsat 1B 30 Jan 14:46:44 14:51:50 47° 261° (W) 14:56:57 435.225
JAS-2 30 Jan 14:53:33 14:54:05 10° 64° (ENE) 14:54:59 435.910
KKS-1 30 Jan 14:54:00 14:58:27 61° 101° (E) 15:02:52 437.445
PHONESAT 2.4 30 Jan 14:54:51 14:57:54 25° 213° (SSW) 15:00:55 2401.200-2431.200
BEESAT 30 Jan 14:54:55 14:58:53 26° 290° (WNW) 15:02:46 436.000
RS-15 30 Jan 14:55:12 15:06:36 72° 245° (WSW) 15:18:27 29.354- 29.394
ITUPSAT 1 30 Jan 14:59:43 15:03:35 24° 291° (WNW) 15:07:20 437.325
PCSat 30 Jan 15:10:53 15:14:40 19° 254° (WSW) 15:18:15 145.827
ITAMSAT 1 30 Jan 15:24:35 15:27:14 13° 270° (W) 15:29:33 435.822/435.867
AUBIESAT-1 30 Jan 15:26:07 15:28:50 23° 102° (ESE) 15:31:43 437.475
O/OREOS (USA 219) 30 Jan 15:39:08 15:43:18 39° 105° (ESE) 15:47:32 437.305
HORYU 2 30 Jan 15:39:52 15:44:03 37° 262° (W) 15:48:13 437.375
DANDE 30 Jan 15:53:16 15:59:30 71° 265° (W) 16:04:02 436.750
JUGNU 30 Jan 16:04:11 16:04:59 10° 166° (SSE) 16:05:54 437.505
AO-7 30 Jan 16:14:38 16:22:53 60° 258° (WSW) 16:31:08 29.400- 29.500
CUSAT 1 30 Jan 16:15:52 16:20:51 31° 272° (W) 16:24:39 437.405
STARS 30 Jan 16:21:57 16:25:22 21° 290° (WNW) 16:28:38 437.465
M-CUBED/EXP-1 PRIME 30 Jan 16:28:37 16:31:42 35° 290° (WNW) 16:34:53 437.505
KKS-1 30 Jan 16:33:05 16:34:39 11° 294° (WNW) 16:35:57 437.445
JAS-2 30 Jan 16:33:09 16:38:45 81° 257° (WSW) 16:44:00 435.910
MOZHAYETS 4 30 Jan 16:42:50 16:46:59 34° 97° (E) 16:51:10
AUBIESAT-1 30 Jan 17:01:34 17:03:41 15° 293° (WNW) 17:05:44 437.475
RS-15 30 Jan 17:12:33 17:17:39 13° 259° (W) 17:21:31 29.354- 29.394
O/OREOS (USA 219) 30 Jan 17:19:54 17:22:57 17° 302° (WNW) 17:25:52 437.305
Cubesat XI-IV 30 Jan 17:35:27 17:40:35 53° 73° (ENE) 17:45:47 437.490
JUGNU 30 Jan 17:49:44 17:53:15 16° 175° (S) 17:56:49 437.505
CUTE-I 30 Jan 17:54:49 18:00:07 81° 77° (ENE) 18:05:29 437.470
PRISM 30 Jan 18:06:07 18:09:30 24° 96° (E) 18:12:57 437.425
MOZHAYETS 4 30 Jan 18:20:42 18:24:02 20° 291° (WNW) 18:27:13
SRMSAT 30 Jan 18:33:13 18:36:17 14° 171° (S) 18:39:23 437.500
HO-68 30 Jan 18:37:40 18:40:21 13° 57° (ENE) 18:43:31 435.675
CUBESAT XI-V 30 Jan 18:39:08 18:43:39 45° 98° (E) 18:48:10 437.345
SO-50 30 Jan 18:56:49 19:01:31 44° 55° (NE) 19:06:14 436.795
YUBILEINY 30 Jan 19:13:32 19:21:43 50° 90° (E) 19:30:02 435.215
Cubesat XI-IV 30 Jan 19:17:43 19:21:05 16° 269° (W) 19:24:13 437.490
GOMX 1 30 Jan 19:17:49 19:20:21 14° 65° (ENE) 19:23:13 467.674
STRAND 1 30 Jan 19:21:17 19:26:29 83° 105° (ESE) 19:31:38 437.568
DOVE 4 30 Jan 19:24:09 19:25:33 11° 64° (ENE) 19:27:16 437.250
BRITE-PL 30 Jan 19:28:23 19:32:29 26° 68° (ENE) 19:36:56 437.365/2234.400
SEEDS 30 Jan 19:29:57 19:31:33 12° 68° (ENE) 19:33:23 437.485
JUGNU 30 Jan 19:38:04 19:41:33 16° 185° (S) 19:45:02 437.505
PRISM 30 Jan 19:41:39 19:44:57 23° 290° (WNW) 19:48:10 437.425
COMPASS 1 30 Jan 19:52:54 19:55:47 19° 70° (ENE) 19:58:48 437.405
CANX-2 30 Jan 20:10:31 20:14:39 48° 75° (ENE) 20:18:48 2200.000
AAUSAT CUBESAT 2 30 Jan 20:17:08 20:20:49 31° 73° (ENE) 20:24:33 437.432
CUBESAT XI-V 30 Jan 20:17:48 20:20:47 16° 292° (WNW) 20:23:34 437.345
HO-68 30 Jan 20:19:59 20:27:07 78° 73° (ENE) 20:34:17 435.675
SRMSAT 30 Jan 20:20:58 20:24:44 17° 181° (S) 20:28:31 437.500
CINEMA 3 30 Jan 20:33:34 20:37:54 32° 71° (ENE) 20:42:23 145.822/145.860
CUTE 1.7 + AOD 2 30 Jan 20:34:15 20:38:34 86° 78° (ENE) 20:42:52 437.475
UWE-3 30 Jan 20:36:52 20:39:41 17° 68° (ENE) 20:42:43 435.000/436.395/437.385
SO-50 30 Jan 20:38:13 20:41:50 20° 249° (WSW) 20:45:15 436.795
Oscar 11 30 Jan 20:41:51 20:45:35 29° 72° (ENE) 20:49:22 145.826/435.025
GOMX 1 30 Jan 20:52:52 20:57:53 66° 260° (W) 21:03:14 467.674
DOVE 4 30 Jan 20:57:35 21:02:36 81° 258° (WSW) 21:07:54 437.250
SEEDS 30 Jan 21:02:52 21:07:01 50° 261° (W) 21:11:10 437.485
STRAND 1 30 Jan 21:03:44 21:05:04 11° 297° (WNW) 21:06:04 437.568
BRITE-PL 30 Jan 21:06:17 21:10:50 34° 265° (W) 21:15:40 437.365/2234.400
VELOX 1 30 Jan 21:06:41 21:08:07 12° 66° (ENE) 21:09:49 145.980
YUBILEINY 30 Jan 21:11:19 21:18:54 31° 289° (WNW) 21:26:17 435.215
ISS 30 Jan 21:13:14 21:16:30 88° 314° (NW) 21:19:47 145.825
UKube-1 30 Jan 21:17:43 21:21:48 43° 73° (ENE) 21:25:56 .
HUMSAT D 30 Jan 21:26:41 21:30:09 24° 71° (ENE) 21:33:41 437.325/437.525
COMPASS 1 30 Jan 21:27:34 21:31:20 30° 263° (W) 21:35:04 437.405
CUBEBUG 2 30 Jan 21:34:29 21:39:13 84° 79° (E) 21:44:04 437.445
ZACube-1 30 Jan 21:35:12 21:39:43 58° 75° (ENE) 21:44:17 437.345
DELFI C3 30 Jan 21:38:06 21:42:11 72° 258° (WSW) 21:46:16 145.870
AIST 1 30 Jan 21:38:41 21:41:12 15° 72° (ENE) 21:43:55
DX 1 30 Jan 21:40:11 21:44:31 84° 77° (ENE) 21:48:55 434.975-435.025
FUNcube-1 30 Jan 21:46:31 21:51:06 78° 77° (ENE) 21:55:44 145.935
CANX-2 30 Jan 21:49:11 21:50:56 12° 270° (W) 21:52:26 2200.000
AAUSAT CUBESAT 2 30 Jan 21:53:36 21:56:34 18° 267° (W) 21:59:24 437.432
SRMSAT 30 Jan 22:10:27 22:13:12 13° 191° (S) 22:15:52 437.500
CINEMA 3 30 Jan 22:11:05 22:15:08 25° 267° (W) 22:19:10 145.822/145.860
HO-68 30 Jan 22:11:16 22:15:40 16° 270° (W) 22:19:36 435.675
UWE-3 30 Jan 22:11:25 22:15:54 45° 262° (W) 22:20:25 435.000/436.395/437.385
AISAT 30 Jan 22:12:27 22:16:51 69° 76° (ENE) 22:21:20 437.250
Oscar 11 30 Jan 22:18:29 22:21:49 20° 266° (W) 22:25:01 145.826/435.025
NANOSAT C BR1 30 Jan 22:19:53 22:21:56 13° 91° (E) 22:24:11 145.865
ESTCUBE 1 30 Jan 22:21:01 22:25:02 34° 72° (ENE) 22:29:06 437.505/2401.250
ANTELSAT 30 Jan 22:21:09 22:24:47 25° 95° (E) 22:28:25 437.575/2403.000
50 SAT 30 Jan 22:22:27 22:26:35 82° 77° (ENE) 22:30:45 437.505
TIGRISAT 30 Jan 22:27:45 22:31:35 29° 96° (E) 22:35:24 435.000
QB50P2 30 Jan 22:34:13 22:37:26 21° 94° (E) 22:40:43 145.880/145.840
VELOX 1 30 Jan 22:39:54 22:44:16 58° 260° (W) 22:48:39 145.980
QB50P1 30 Jan 22:42:40 22:46:14 26° 95° (E) 22:49:51 145.935-145.965
CUBEBUG 1 30 Jan 22:43:15 22:47:29 56° 75° (ENE) 22:51:47 437.445
BUGSAT 1 30 Jan 22:45:55 22:49:09 21° 94° (E) 22:52:29 437.445
ISS 30 Jan 22:51:49 22:53:26 13° 335° (NNW) 22:54:59 145.825
TISAT 1 30 Jan 22:55:06 22:57:42 17° 69° (ENE) 23:00:29 437.305
UKube-1 30 Jan 22:55:54 22:58:14 14° 268° (W) 23:00:21 .
POLYITAN 1 30 Jan 22:58:15 23:02:18 40° 98° (E) 23:06:21 437.675
HUMSAT D 30 Jan 23:02:13 23:05:52 25° 265° (W) 23:09:27 437.325/437.525
ZACube-1 30 Jan 23:14:52 23:16:32 11° 271° (W) 23:17:54 437.345
AIST 1 30 Jan 23:15:03 23:19:05 36° 268° (W) 23:23:05
POPSAT HIP 1 30 Jan 23:17:10 23:21:29 68° 102° (ESE) 23:25:45 437.405
DUCHIFAT 1 30 Jan 23:18:48 23:23:07 71° 102° (ESE) 23:27:22 145.980
UNISAT 6 30 Jan 23:21:08 23:25:31 61° 285° (WNW) 23:29:46 437.425
NANOSAT C BR1 30 Jan 23:54:00 23:58:05 42° 286° (WNW) 00:02:07 145.865
SPROUT 30 Jan 23:57:45 00:02:04 87° 256° (WSW) 00:06:26 437.525
ANTELSAT 30 Jan 23:57:58 00:01:31 24° 290° (WNW) 00:04:55 437.575/2403.000
ESTCUBE 1 30 Jan 23:58:51 00:02:03 18° 267° (W) 00:05:06 437.505/2401.250
TIGRISAT 31 Jan 00:04:52 00:08:12 21° 291° (WNW) 00:11:22 435.000
SWISSCUBE 31 Jan 00:06:26 00:09:33 18° 68° (ENE) 00:12:50 437.505
QB50P2 31 Jan 00:09:40 00:13:23 28° 288° (WNW) 00:17:00 145.880/145.840
QB50P1 31 Jan 00:18:37 00:22:03 23° 290° (WNW) 00:25:22 145.935-145.965
BUGSAT 1 31 Jan 00:20:59 00:24:40 27° 288° (WNW) 00:28:15 437.445
BEESAT 31 Jan 00:21:13 00:24:56 24° 69° (ENE) 00:28:46 436.000
CUBEBUG 1 31 Jan 00:23:33 00:24:20 10° 271° (W) 00:24:48 437.445
ITUPSAT 1 31 Jan 00:26:02 00:29:55 26° 70° (ENE) 00:33:54 437.325
TISAT 1 31 Jan 00:29:22 00:33:17 36° 263° (W) 00:37:13 437.305
POLYITAN 1 31 Jan 00:35:21 00:37:57 15° 292° (WNW) 00:40:23 437.675
GONETS M04 31 Jan 01:15:54 01:24:33 68° 93° (E) 01:33:13
BEESAT 2 31 Jan 01:30:34 01:34:22 38° 114° (ESE) 01:38:15 435.950
AIST 2 31 Jan 01:36:57 01:39:43 18° 110° (ESE) 01:42:38 435.215
Oscar 19 31 Jan 01:37:56 01:42:58 53° 100° (E) 01:47:58 437.125/150
STARS 31 Jan 01:40:08 01:43:16 20° 69° (ENE) 01:46:32 437.465
BEESAT 3 31 Jan 01:42:33 01:46:34 62° 117° (ESE) 01:50:41 437.485
SWISSCUBE 31 Jan 01:42:40 01:47:09 41° 262° (W) 01:51:38 437.505
M-CUBED/EXP-1 PRIME 31 Jan 01:42:53 01:44:03 11° 65° (ENE) 01:45:24 437.505
KKS-1 31 Jan 01:49:28 01:53:36 38° 73° (ENE) 01:57:47 437.445
O/OREOS (USA 219) 31 Jan 01:51:45 01:56:11 47° 66° (ENE) 02:00:38 437.305
BEESAT 31 Jan 01:58:28 02:02:40 30° 264° (W) 02:06:50 436.000
ITAMSAT 1 31 Jan 01:58:30 02:02:52 27° 95° (E) 02:07:21 435.822/435.867
ITUPSAT 1 31 Jan 02:03:41 02:07:46 27° 264° (W) 02:11:48 437.325
AUBIESAT-1 31 Jan 02:12:32 02:15:39 23° 68° (ENE) 02:18:40 437.475
Gurwin Techsat 1B 31 Jan 03:05:41 03:11:01 88° 97° (E) 03:16:21 435.225
RS-15 31 Jan 03:06:35 03:13:59 23° 104° (ESE) 03:22:00 29.354- 29.394
BEESAT 2 31 Jan 03:09:49 03:12:46 18° 311° (NW) 03:15:38 435.950
AIST 2 31 Jan 03:14:07 03:18:05 37° 305° (NW) 03:22:04 435.215
M-CUBED/EXP-1 PRIME 31 Jan 03:14:52 03:18:50 47° 255° (WSW) 03:22:29 437.505
GONETS M04 31 Jan 03:15:28 03:22:14 23° 293° (WNW) 03:28:37
STARS 31 Jan 03:15:31 03:19:34 33° 263° (W) 03:23:34 437.465
DANDE 31 Jan 03:15:59 03:22:39 30° 87° (E) 03:29:53 436.750
Oscar 19 31 Jan 03:18:41 03:21:56 17° 294° (WNW) 03:24:57 437.125/150
BEESAT 3 31 Jan 03:23:19 03:25:11 12° 315° (NW) 03:26:55 437.485
KKS-1 31 Jan 03:27:29 03:30:26 17° 268° (W) 03:33:14 437.445
O/OREOS (USA 219) 31 Jan 03:32:50 03:35:14 14° 260° (W) 03:37:24 437.305
CUSAT 1 31 Jan 03:33:58 03:41:35 46° 91° (E) 03:49:32 437.405
HORYU 2 31 Jan 03:34:01 03:38:21 51° 100° (E) 03:42:40 437.375
ITAMSAT 1 31 Jan 03:37:46 03:42:23 31° 290° (WNW) 03:46:54 435.822/435.867
MOZHAYETS 4 31 Jan 03:42:29 03:46:06 24° 71° (ENE) 03:49:48
ISS 31 Jan 03:43:39 03:46:34 29° 34° (NE) 03:49:31 145.825
JAS-2 31 Jan 03:45:46 03:48:41 14° 91° (E) 03:52:10 435.910
AUBIESAT-1 31 Jan 03:47:25 03:50:33 21° 259° (W) 03:53:26 437.475
PCSat 31 Jan 04:04:43 04:10:08 85° 118° (ESE) 04:15:36 145.827
AO-7 31 Jan 04:19:29 04:27:39 58° 102° (ESE) 04:35:48 29.400- 29.500
Gurwin Techsat 1B 31 Jan 04:49:12 04:50:21 10° 297° (WNW) 04:51:09 435.225
PRISM 31 Jan 04:55:35 04:57:24 13° 68° (ENE) 04:59:26 437.425
DANDE 31 Jan 04:57:35 05:05:40 60° 283° (WNW) 05:14:13 436.750
HORYU 2 31 Jan 05:12:32 05:14:38 13° 293° (WNW) 05:16:31 437.375
RS-15 31 Jan 05:14:21 05:25:19 80° 301° (WNW) 05:36:21 29.354- 29.394
CUSAT 1 31 Jan 05:17:08 05:24:45 39° 288° (WNW) 05:32:22 437.405
MOZHAYETS 4 31 Jan 05:19:17 05:23:15 28° 265° (W) 05:27:09
ISS 31 Jan 05:20:15 05:22:59 23° 229° (SW) 05:25:39 145.825
YUBILEINY 31 Jan 05:28:19 05:34:17 21° 66° (ENE) 05:40:43 435.215
JAS-2 31 Jan 05:28:23 05:34:13 73° 285° (WNW) 05:40:49 435.910
CUBESAT XI-V 31 Jan 05:40:05 05:44:04 31° 72° (ENE) 05:48:10 437.345
PCSat 31 Jan 05:51:33 05:54:22 14° 315° (NW) 05:56:56 145.827
Cubesat XI-IV 31 Jan 05:56:12 06:00:41 27° 95° (E) 06:05:15 437.490
AO-7 31 Jan 06:13:05 06:20:03 30° 299° (WNW) 06:26:46 29.400- 29.500
CUTE-I 31 Jan 06:15:11 06:20:14 41° 98° (E) 06:25:18 437.470
PRISM 31 Jan 06:28:41 06:32:36 43° 261° (W) 06:36:32 437.425
VERMONT LUNAR 31 Jan 06:33:46 06:36:05 17° 145° (SE) 06:38:28 437.305
STRAND 1 31 Jan 06:34:12 06:39:18 87° 79° (E) 06:44:27 437.568
DANDE 31 Jan 06:48:22 06:51:09 11° 303° (WNW) 06:53:13 436.750
CUBESAT XI-V 31 Jan 07:18:02 07:21:36 21° 267° (W) 07:25:03 437.345
YUBILEINY 31 Jan 07:23:22 07:32:09 75° 266° (W) 07:40:55 435.215
RS-15 31 Jan 07:31:29 07:39:53 23° 327° (NNW) 07:48:03 29.354- 29.394
Cubesat XI-IV 31 Jan 07:36:01 07:40:49 33° 290° (WNW) 07:45:32 437.490
BRITE-PL 31 Jan 07:38:37 07:40:04 11° 86° (E) 07:41:54 437.365/2234.400
PHONESAT 2.4 31 Jan 07:43:58 07:47:14 33° 149° (SSE) 07:50:32 2401.200-2431.200
HO-68 31 Jan 07:53:07 07:57:02 16° 90° (E) 08:01:23 435.675
CUTE-I 31 Jan 07:55:55 08:00:05 22° 293° (WNW) 08:04:05 437.470
CANX-2 31 Jan 08:02:17 08:02:30 10° 89° (E) 08:03:01 2200.000
VERMONT LUNAR 31 Jan 08:10:25 08:13:53 89° 324° (NW) 08:17:23 437.305
CUTE 1.7 + AOD 2 31 Jan 08:23:47 08:26:37 18° 93° (E) 08:29:35 437.475
SEEDS 31 Jan 08:50:42 08:54:27 31° 96° (E) 08:58:12 437.485
GOMX 1 31 Jan 08:58:19 09:03:32 51° 98° (E) 09:08:27 467.674
DOVE 4 31 Jan 09:00:42 09:05:24 37° 96° (E) 09:09:54 437.250
SO-50 31 Jan 09:09:18 09:13:01 26° 112° (ESE) 09:16:55 436.795
BRITE-PL 31 Jan 09:13:43 09:19:23 79° 284° (WNW) 09:24:42 437.365/2234.400
COMPASS 1 31 Jan 09:13:54 09:17:58 50° 99° (E) 09:22:00 437.405
ANTELSAT 31 Jan 09:17:54 09:21:04 19° 69° (ENE) 09:24:24 437.575/2403.000
PHONESAT 2.4 31 Jan 09:22:10 09:25:43 57° 344° (NNW) 09:29:17 2401.200-2431.200
DELFI C3 31 Jan 09:22:17 09:25:07 19° 94° (E) 09:28:04 145.870
TIGRISAT 31 Jan 09:24:01 09:27:29 21° 70° (ENE) 09:31:03 435.000
YUBILEINY 31 Jan 09:25:11 09:27:44 11° 281° (W) 09:29:27 435.215
QB50P2 31 Jan 09:26:25 09:27:52 12° 67° (ENE) 09:29:33 145.880/145.840
ZACube-1 31 Jan 09:29:06 09:31:12 14° 90° (E) 09:33:30 437.345
CUBEBUG 2 31 Jan 09:30:05 09:33:29 22° 93° (E) 09:36:55 437.445
DX 1 31 Jan 09:32:39 09:35:38 18° 93° (E) 09:38:45 434.975-435.025
QB50P1 31 Jan 09:34:07 09:36:21 14° 68° (ENE) 09:38:47 145.935-145.965
CANX-2 31 Jan 09:34:44 09:38:53 53° 285° (WNW) 09:42:57 2200.000
BUGSAT 1 31 Jan 09:36:05 09:36:42 10° 66° (ENE) 09:37:34 437.445
HO-68 31 Jan 09:38:24 09:45:35 78° 287° (WNW) 09:52:44 435.675
AAUSAT CUBESAT 2 31 Jan 09:38:27 09:42:36 89° 73° (ENE) 09:46:45 437.432
FUNcube-1 31 Jan 09:39:37 09:42:33 18° 92° (E) 09:45:35 145.935
VERMONT LUNAR 31 Jan 09:48:58 09:52:14 37° 355° (N) 09:55:31 437.305
POLYITAN 1 31 Jan 09:49:17 09:52:33 22° 70° (ENE) 09:55:56 437.675
RS-15 31 Jan 09:54:08 09:58:18 12° 3° (N) 10:02:34 29.354- 29.394
BEESAT 2 31 Jan 09:54:41 09:56:19 12° 45° (NE) 09:58:08 435.950
CUTE 1.7 + AOD 2 31 Jan 09:58:55 10:02:39 30° 288° (WNW) 10:06:20 437.475
UWE-3 31 Jan 10:04:49 10:09:06 45° 98° (E) 10:13:14 435.000/436.395/437.385
BEESAT 3 31 Jan 10:05:40 10:08:25 17° 49° (NE) 10:11:16 437.485
50 SAT 31 Jan 10:06:43 10:08:36 13° 91° (E) 10:10:39 437.505
POPSAT HIP 1 31 Jan 10:07:26 10:11:18 34° 73° (ENE) 10:15:14 437.405
Oscar 11 31 Jan 10:07:34 10:11:54 89° 96° (E) 10:16:12 145.826/435.025
AISAT 31 Jan 10:07:43 10:10:35 17° 92° (E) 10:13:37 437.250
CINEMA 3 31 Jan 10:08:35 10:13:23 74° 283° (WNW) 10:17:54 145.822/145.860
DUCHIFAT 1 31 Jan 10:08:45 10:12:37 35° 73° (ENE) 10:16:33 145.980
UNISAT 6 31 Jan 10:16:38 10:21:21 82° 77° (ENE) 10:26:04 437.425
SEEDS 31 Jan 10:27:12 10:30:05 18° 290° (WNW) 10:32:50 437.485
VELOX 1 31 Jan 10:33:52 10:37:53 33° 97° (E) 10:41:58 145.980
CUBEBUG 1 31 Jan 10:36:56 10:39:04 14° 91° (E) 10:41:27 437.445
GOMX 1 31 Jan 10:37:36 10:41:13 18° 294° (WNW) 10:44:31 467.674
DOVE 4 31 Jan 10:38:59 10:42:56 22° 292° (WNW) 10:46:36 437.250
NANOSAT C BR1 31 Jan 10:43:25 10:47:41 86° 253° (WSW) 10:52:01 145.865
UKube-1 31 Jan 10:44:12 10:48:32 66° 285° (WNW) 10:52:50 .
HUMSAT D 31 Jan 10:49:01 10:53:13 66° 101° (E) 10:57:20 437.325/437.525
SO-50 31 Jan 10:49:26 10:53:29 30° 308° (NW) 10:57:36 436.795
COMPASS 1 31 Jan 10:51:47 10:53:18 11° 292° (WNW) 10:54:35 437.405
ANTELSAT 31 Jan 10:53:11 10:57:37 39° 262° (W) 11:02:01 437.575/2403.000
DELFI C3 31 Jan 10:56:57 11:00:24 27° 288° (WNW) 11:03:46 145.870
QB50P2 31 Jan 10:59:11 11:03:23 53° 260° (W) 11:07:37 145.880/145.840
TIGRISAT 31 Jan 10:59:44 11:04:03 34° 263° (W) 11:08:19 435.000
PHONESAT 2.4 31 Jan 11:01:15 11:04:38 36° 1° (N) 11:08:02 2401.200-2431.200
ZACube-1 31 Jan 11:03:44 11:07:54 42° 286° (WNW) 11:11:56 437.345
CUBEBUG 2 31 Jan 11:06:21 11:10:15 28° 289° (WNW) 11:13:58 437.445
BUGSAT 1 31 Jan 11:07:44 11:11:45 56° 260° (W) 11:15:51 437.445
QB50P1 31 Jan 11:07:52 11:11:56 42° 261° (W) 11:16:02 145.935-145.965
DX 1 31 Jan 11:08:01 11:12:00 33° 288° (WNW) 11:15:56 434.975-435.025
FUNcube-1 31 Jan 11:15:07 11:19:02 32° 288° (WNW) 11:22:49 145.935
